www.pogodaiklimat.ru

Погода и климат >> Архив погоды >> Боливия >> Якуиба


ПОГОДА в Якуибе

  • Прогноз погоды в Якуибе
  • Монитор погоды в Якуибе

АРХИВ ПОГОДЫ в Якуибе

Время (UTC), дата Ветер
(напр.,м/с)
 
Видим.   Явления Облачность Т
(С)
Тd
(С)
f
(%)
Тe
(С)
Тes
(С)
Комфортность P
(гПа)
Po
(гПа)
Тmin
(С)
Tmax
(С)
R
(мм)
R24
(мм)
S
(см)
12 9.06 штиль 0 20 км ясно +10.0 +9.7 98 +9 +11 1015.2 941.0 +6.8
15 9.06 СВ 8 20 км ясно +19.5 +15.0 75 +21 +23 комфорт 1014.0 939.8
18 9.06 СВ 5 20 км 4/4 750 м
[Cu med, cong Ci fib]
+24.0 +16.4 62 +27 +30 жарко 1010.0 935.9
21 9.06 СВ 3 20 км 5/5 750 м
[Cu med, cong]
+23.5 +22.1 92 +30 +31 очень
душно
1008.5 934.6 +25.2
12 10.06 штиль 0 20 км 9/4 700 м
[Sc Ac trans]
+17.5 +15.7 89 +17 +18 1009.6 936.6 +8.0
15 10.06 штиль 0 20 км 9/1 600 м
[Cu hum Ci fib]
+23.4 +17.7 70 +29 +39 душно 1010.2 937.4
18 10.06 СВ 3 20 км 10/6 600 м
[Sc As op]
+23.0 +18.6 76 +29 +29 очень
душно
1008.3 935.5
21 10.06 СВ 3 20 км 10/6 600 м
[Sc As op]
+21.5 +18.3 82 +26 +26 душно 1005.1 935.0 +25.6
12 11.06 штиль 0 20 км 10/4 600 м
[Sc As op]
+16.8 +15.5 92 +17 +17 1013.0 938.4 +9.0
15 11.06 штиль 0 20 км 9/0 2000 м
[Ac und]
+21.7 +16.9 74 +26 +31 душно 1011.4 938.1
18 11.06 штиль 0 20 км 10/6 700 м
[Sc As op]
+23.0 +18.8 77 +29 +30 очень
душно
1008.8 936.0
21 11.06 штиль 0 20 км 10/5 700 м
[Sc As op]
+21.5 +19.5 88 +26 +26 душно 1007.6 934.5 +25.0
12 12.06 штиль 0 20 км 10/6 450 м
[Sc As op]
+19.3 +18.3 94 +21 +21 комфорт 1007.9 934.4 +12.9
15 12.06 штиль 0 20 км 9/5 540 м
[Cu Sc Ac trans Ci fib]
+23.7 +19.9 79 +29 +33 душно 1005.8 933.4
18 12.06 СВ 6 20 км 9/1 700 м
[Cu hum Ci fib]
+27.5 +21.4 69 +35 +37 очень
душно
1002.4 931.1
21 12.06 СВ 3 20 км 9/5 700 м
[Cu hum Ci fib]
+27.4 +21.6 71 +35 +35 очень
душно
1002.3 931.0 +28.9
12 13.06 штиль 0 20 км 10/6 480 м
[Sc As op]
+20.0 +19.5 97 +23 +23 комфорт 1008.5 935.0 +14.9
15 13.06 штиль 0 20 км 8/4 700 м
[Cu med, cong Ac trans]
+25.8 +21.1 75 +32 +37 очень
душно
1007.4 935.4
18 13.06 СВ 5 20 км 6/5 700 м
[Cu hum Ac trans]
+27.4 +21.8 72 +35 +37 очень
душно
1003.9 932.5
21 13.06 СВ 4 20 км 8/3 600 м
[Sc diur, vesp Ac trans Ci fib]
+25.2 +20.8 77 +32 +32 очень
душно
1003.7 931.8 +28.4
12 14.06 ЮЗ 3 20 км осадки на расстоянии 10/8 300 м
[St As op]
+21.6 +20.7 95 +27 +27 душно 1010.8 937.5 +16.8
15 14.06 ЮЗ 4 20 км 10/6 540 м
[Sc As op]
+22.1 +20.2 89 +28 +29 душно 1012.1 938.8
18 14.06 ЮЗ 4 8000 м осадки на расстоянии 10/8 150 м
[Frnb As op]
+21.5 +20.1 92 +27 +27 душно 1010.7 937.4
21 14.06 ЮЗ 4 5000 м слаб. морось 10/8 150 м
[Frnb As op]
+20.8 +20.0 95 +26 +26 душно 1009.9 936.5 +22.8
12 15.06 штиль 0 3000 м слаб. морось 10/8 150 м
[Frnb As op]
+16.9 +16.7 99 +17 +17 1012.8 938.2 +11.6 3
15 15.06 штиль 0 3000 м слаб. морось 10/8 150 м
[Frnb As op]
+16.6 +16.4 99 +16 +17 1013.7 939.0
18 15.06 штиль 0 2000 м слаб. морось 10/8 150 м
[Frnb As op]
+16.4 +16.4 100 +16 +17 1012.7 938.0 2
21 15.06 штиль 0 3000 м слаб. морось 10/8 150 м
[Frnb As op]
+15.5 +15.3 99 +15 +15 1012.2 937.5 +17.3

 

Местоположение метеостанции Якуиба (Боливия): широта -21.95 долгота -63.65 высота над уровнем моря 645 м.

В архиве по умолчанию представлена погода в Якуибе за последнюю неделю. Архивные данные за месяц целиком и за предыдущие месяцы, начиная с января 2011 года, Вы можете получить, выбрав интересующий диапазон дат из раскрывающегося списка и нажав кнопку "Ввод!".


*Определитесь, кто Вы:
робот инопланетянин человек

Внимание! Время в таблицах - всемирное. Для получения местного времени необходимо прибавить поправку, которая равна -4 ч.

Смотрите также архив погоды в соседних городах и на ближайших метеорологических станциях:

Погода в Тартагале (Аргентина) (76 км)
Погода в Вилья-Монтесе (Боливия) (81 км)
Погода в Бермехо (Боливия) (113 км)
Погода в Тарихе (Боливия) (117 км)
Погода в Сан-Рамон-де-ла-Нуэва-Оране (Аргентина) (150 км)
Погода в Ла-Кьяке (Аргентина) (202 км)
Погода в Камири (Боливия) (217 км)
Погода в Пратс-Гиле (Парагвай) (236 км)
Погода в Монтеагудо (Боливия) (243 км)
Погода в Сан-Сальвадор-де-Жужуе (Аргентина) (307 км)

Пояснения к столбцам:

Ветер - указаны скорость ветра в м/с - средняя за 10 мин, порывы в срок и между сроками (в фигурных скобках) и направление, откуда дует ветер: С - северный, СВ - северо-восточный, В - восточный, ЮВ - юго-восточный, Ю - южный, ЮЗ - юго-западный, З - западный, СЗ - северо-западный.
Видимость - горизонтальная дальность видимости в метрах или километрах. При видимости от 1 до 10 км при отсутствии осадков обычно наблюдается дымка, при ухудшении видимости до 1 км и менее - туман. В сухую погоду видимость может ухудшаться дымом, пылью или мглою.
Явления - указаны атмосферные явления, наблюдавшиеся в срок или в последний час перед сроком; фигурными скобками обозначены явления, наблюдавшиеся между сроками (за 1-3 часа до срока); квадратными скобками обозначены град или гололедные отложения с указанием их диаметра в мм.
Облачность - указаны через наклонную черту общая и нижняя облачность в баллах и высота нижней границы облаков в метрах; квадратными скобками обозначены формы облаков: Ci - перистые, Cs - перисто-слоистые, Cc - перисто-кучевые, Ac - высококучевые, As - высокослоистые, Sc - слоисто-кучевые, Ns - слоисто-дождевые, Cu - кучевые, Cb - кучево-дождевые. Подробнее классификацию облаков см. в Атласе облаков (PDF).
T - Температура воздуха - температура, измеренная на высоте 2 м над землей.
Td - Температура точки росы - температура, при понижении до которой содержащийся в воздухе водяной пар достигнет насыщения.
f - Относительная влажность воздуха - влажноcть воздуха, измеренная на высоте 2 м над землей.
Te - Эффективная температура - температура, которую ощущает одетый по сезону человек в тени. Характеристика душности погоды. При расчете учитывается влияние влажности воздуха и скорости ветра на теплоощущения человека.
Tes - Эффективная температура на солнце - температура, которую ощущает человек, с поправкой на солнечный нагрев. Характеристика знойности погоды. Зависит от высоты солнца над горизонтом, облачности и скорости ветра. Ночью, в пасмурную погоду, а также при ветре 12 м/с и более поправка равна нулю.
P - Атмосферное давление - приведенное к уровню моря атмосферное давление.
Po - Атмосферное давление - измеренное на уровне метеостанции атмосферное давление.
Tmin - Минимальная температура - минимум температуры воздуха на высоте 2 м над землей.
Tmax - Максимальная температура - максимум температуры воздуха на высоте 2 м над землей.
R - Количество осадков - Количество выпавших осадков за период времени, мм. При наведении курсора мыши на число - период времени, за который выпало указанное количество осадков.
R24 - Количество осадков - Количество выпавших осадков за 24 часа, мм.
S - Снежный покров - Высота снежного покрова, см. При наведении курсора мыши на число - состояние снежного покрова и степень покрытия местности в баллах.